Hourly Data Report for September 02, 2017

All times are specified in Local Standard Time (LST). Add 1 hour to adjust for Daylight Saving Time where and when it is observed.

ALERT CLIMATE
NUNAVUT

82°30'00.000" N
62°20'00.000" W
65.40 m
2400305
71355
ZLT

Download Data

Hourly Data (September 2017)
Hourly Data Report for September 2, 2017
Temp Definition
°C
Dew Point Temp Definition
°C
Rel Hum Definition
%
Wind Dir Definition
10's deg

Wind Spd Definition
km/h
Visibility Definition
km
Stn Press Definition
kPa
Hmdx Definition


Wind Chill Definition


Weather Definition


TIME
00:00 -6.5 -7.3 94 29 7   99.96   -10 LegendNANA
01:00 -6.2 -7.4 91 33 14   99.97   -12 LegendNANA
02:00 -6.4 -7.0 95 34 8   100.00   -10 LegendNANA
03:00 -6.7 -7.3 95 33 7   100.03   -10 LegendNANA
04:00 -7.1 -7.7 96 30 4   100.05   -9 LegendNANA
05:00 -7.7 -8.4 95 30 1   100.09   -8 LegendNANA
06:00 -8.1 -8.8 94 20 2   100.12   -9 LegendNANA
07:00 -7.7 -8.6 93 27 3   100.13   -9 LegendNANA
08:00 -7.8 -8.6 94 29 4   100.14   -10 LegendNANA
09:00 -6.6 -8.3 88 35 6   100.13   -10 LegendNANA
10:00 -7.4 -8.7 90 21 14   100.14   -13 LegendNANA
11:00 -7.4 -8.7 91 20 12   100.15   -13 LegendNANA
12:00 -8.2 -9.7 89 17 9   100.15   -13 LegendNANA
13:00 -8.3 -10.5 84 30 6   100.16   -12 LegendNANA
14:00 -8.1 -10.2 85 21 4   100.16   -10 LegendNANA
15:00 -7.7 -9.8 85 23 7   100.17   -11 LegendNANA
16:00 -8.1 -10.1 85 23 12   100.19   -14 LegendNANA
17:00 -8.2 -10.0 86 27 11   100.21   -13 LegendNANA
18:00 -9.5 -11.3 86 27 7   100.22   -13 LegendNANA
19:00 -10.0 -11.5 89 18 5   100.24   -13 LegendNANA
20:00 -9.4 -11.3 86 23 1   100.24   -10 LegendNANA
21:00 -10.3 -11.5 91 27 3   100.25   -12 LegendNANA
22:00 -10.0 -11.5 89 32 2   100.27   -11 LegendNANA
23:00 -11.2 -12.2 92 29 4   100.27   -14 LegendNANA

Notes on Data Quality.

Legend

  • E = Estimated
  • M = Missing
  • NA = Not Available
  • ‡ = Partner data that is not subject to review by the National Climate Archives
Date modified: